Погода в Шверине

Германия     53°38′11″N   11°24′07″E
темп.,
°C
ветер,
м/с
пор.,
м/с
влажн.,
%
обл.,
%
осадки,
мм/ч
давл.,
гПа
погр.,
м
25 июля, вс
вс2523:00+19в61568100 0.0 1011328
02:00+19вюв5137399 0.3 1010360
05:00+17вюв41186100 1.3 1009214
08:00+17юв3887100 1.5 1010262
11:00+19юв358154 0.5 1011375
14:00+25ю456118 1.3 10101284
17:00+27юз245353 1.3 10091628
20:00+23зсз227117 1.5 100922
26 июля, пн
пн2623:00+18всв3593100 0.5 101183
02:00+17вюв369699 1.4 1011111
05:00+17ююв339191 0.0 101030
08:00+20ю3584100 0.0 1011192
11:00+24ю3462100 0.0 1011705
14:00+28ю34486 0.0 10111754
17:00+25юз2260100 0.0 101038
20:00+23з0171100 0.1 101126
27 июля, вт
вт2723:00+17вюв3696100 0.9 1011120
02:00+18зюз349017 1.1 101158
05:00+15зюз38940 0.0 1012146
08:00+18зюз58850 0.0 1012382
11:00+22зюз56649 0.0 10121036
14:00+25зюз45485 0.1 10121859
17:00+26зюз354243 0.0 10112229
20:00+21сз116820 0.0 101117
28 июля, ср
ср2823:00+18ююв1275100 0.0 101111
02:00+16з249398 0.8 101096
05:00+16юз4895100 0.0 1010268
08:00+17юз498668 0.0 1010432
11:00+22юз695881 0.0 10101180
14:00+25юз684681 0.0 10102139
17:00+23зюз795756 0.1 10111628
20:00+19зюз69746 0.5 1011758
29 июля, чт
чт2923:00+15зюз389581 0.0 1012192
02:00+14зюз249666 0.0 101375
05:00+13ююз349615 0.0 101275
08:00+16юз48823 0.0 1012370
11:00+21юз57585 0.2 10111335
14:00+24юз684241 0.6 10102327
17:00+21ю37545 0.0 1009337
20:00+21ю5115322 0.0 1008418